Location: Narrabri
(30.3170°S, 149.7830°E)
Time: 20:06:01
(UTC+11:00)

Hubble Space Telescope - Pass Details

Date: 08 October 2017
Orbit: 537 x 541 km, 28.5° (Epoch: 18 October)

Event Time Altitude Azimuth Distance (km) Brightness Sun altitude
Rises 19:41:56 0° 272° (W) 2,688 6.2 -8.4°
Reaches altitude 10° 19:44:39 10° 289° (WNW) 1,793 4.4 -9.0°
Maximum altitude 19:47:43 20° 337° (NNW) 1,275 2.8 -9.6°
Drops below altitude 10° 19:50:46 10° 25° (NNE) 1,785 3.1 -10.2°
Enters shadow 19:51:46 - 33° (NNE) 2,087 3.3 -10.5°
